Flag for Canada Weather past 2 weeks in Steinbach, Manitoba, Canada

Now
63 °F

Mild.


Feels Like: 63 °F
Forecast: 35 / 55 °F
Wind: 2 mph from South

Location: Winnipeg The Forks

Current Time: Apr 18, 2015 at 9:01:34 PM

Latest Report: Apr 18, 2015 at 8:00 PM


Visibility: N/A

Pressure: 29.86 "Hg

Humidity: 21%

Dew point: 23 °F

Location of SteinbachLocation

Historic Weather in Steinbach — Graph

°F

Steinbach temperature yesterday

Maximum temperature yesterday: 65 °F (at 11:00 AM)
Minimum temperature yesterday: 42 °F (at 6:00 AM)
Average temperature yesterday: 53 °F

Past Weeks' High & Low Weather Summary

 TemperatureHumidityPressure
High76 °F (Apr 15, 6:00 PM)96% (Apr 8, 7:00 AM)30.35 "Hg (Apr 8, 7:00 AM)
Low11 °F (Apr 5, 7:00 AM)14% (Apr 13, 1:00 PM)29.39 "Hg (Apr 12, 5:00 AM)
Average43 °F46%30.01 "Hg
* Reported Apr 3 8:00 PM — Apr 18 8:00 PM, Steinbach, Weather by CustomWeather, © 2015

Note: Actual official high and low records may vary slightly from our data, if they occured in-between our weather recording intervals... More about our weather records

Advertising

Steinbach weather history for previous 24 hours

 ConditionsComfort  
Time TempWeatherWind HumidityBarometerVisibility
8:00 PM
Sat, Apr 18
63 °FMild.2 mph21%29.86 "HgN/A
7:00 PM65 °FMild.2 mph20%29.88 "HgN/A
6:00 PM65 °FMild.3 mph19%29.90 "HgN/A
5:00 PM65 °FMild.5 mph17%29.92 "HgN/A
4:00 PM65 °FMild.5 mph18%29.95 "HgN/A
3:00 PM62 °FMild.3 mph20%29.99 "HgN/A
2:00 PM61 °FRefreshingly cool.6 mph25%30.02 "HgN/A
1:00 PM59 °FRefreshingly cool.2 mph29%30.06 "HgN/A
12:00 PM56 °FRefreshingly cool.5 mph31%30.09 "HgN/A
11:00 AM53 °FCool.5 mph33%30.11 "HgN/A
10:00 AM49 °FCool.3 mph44%30.14 "HgN/A
9:00 AM44 °FQuite cool.2 mph58%30.17 "HgN/A
8:00 AM39 °FChilly.2 mph64%30.18 "HgN/A
7:00 AM34 °FChilly.2 mph74%30.20 "HgN/A
6:00 AM35 °FChilly.2 mph74%30.21 "HgN/A
5:00 AM37 °FChilly.2 mph73%30.20 "HgN/A
4:00 AM38 °FChilly.1 mph73%30.20 "HgN/A
3:00 AM38 °FChilly.1 mph74%30.22 "HgN/A
2:00 AM39 °FChilly.2 mph70%30.22 "HgN/A
1:00 AM41 °FQuite cool.2 mph65%30.22 "HgN/A
12:00 AM41 °FQuite cool.2 mph63%30.20 "HgN/A
11:00 PM
Fri, Apr 17
43 °FQuite cool.2 mph60%30.19 "HgN/A
10:00 PM45 °FCool.6 mph63%30.17 "HgN/A
9:00 PM48 °FCool.6 mph50%30.16 "HgN/A
Weather by CustomWeather, © 2015

See weather overviewHow to use our weather pages